FW8890 Weather Reports


time (UTC)temp
F
wind
direction
speed
knots
gust
knots
rain 1hr
in
rain 24hr
in
rain mn
in
humidity
%
barometer
mb
20260502194419 75 232 2.6 4.3 0.00 0.00 0.00 37 1018.2
20260502193915 75 329 0.9 0.9 0.00 0.00 0.00 40 1018.4
20260502193412 75 13 0.9 0.9 0.00 0.00 0.00 39 1018.6
20260502192908 74 273 3.5 5.2 0.00 0.00 0.00 42 1018.4
20260502192405 76 274 1.7 1.7 0.00 0.00 0.00 40 1018.5
20260502191902 74 345 0.9 0.9 0.00 0.00 0.00 42 1018.9
20260502191400 74 4 0.9 1.7 0.00 0.00 0.00 37 1019.0
20260502190857 76 340 2.6 4.3 0.00 0.00 0.00 39 1018.9
20260502190354 76 359 0.9 1.7 0.00 0.00 0.00 38 1019.0
20260502185850 75 26 0.9 1.7 0.00 0.00 0.00 40 1019.1
20260502185345 76 31 4.3 6.1 0.00 0.00 0.00 37 1019.2
20260502184843 75 319 0.9 0.9 0.00 0.00 0.00 40 1019.1
20260502184338 74 293 0.9 1.7 0.00 0.00 0.00 41 1019.2
20260502183835 76 10 1.7 1.7 0.00 0.00 0.00 39 1019.4
20260502183331 75 11 0.9 0.9 0.00 0.00 0.00 38 1019.4
20260502182826 75 339 1.7 1.7 0.00 0.00 0.00 38 1019.3
20260502182322 74 65 1.7 1.7 0.00 0.00 0.00 40 1019.4
20260502181819 75 321 0.9 0.9 0.00 0.00 0.00 37 1019.4
20260502181318 73 76 0.9 1.7 0.00 0.00 0.00 38 1019.2
20260502180815 72 7 6.1 7.0 0.00 0.00 0.00 40 1019.4
20260502180312 73 16 3.5 5.2 0.00 0.00 0.00 41 1019.6
20260502170231 72 321 0.0 0.9 0.00 0.00 0.00 47 1020.0
20260502164219 70 2 0.9 0.9 0.00 0.00 0.00 45 1019.9
20260502163714 70 46 1.7 1.7 0.00 0.00 0.00 47 1020.0
20260502163211 71 325 0.9 1.7 0.00 0.00 0.00 48 1019.9
20260502162708 70 312 0.9 1.7 0.00 0.00 0.00 49 1019.9
20260502162204 70 22 2.6 4.3 0.00 0.00 0.00 46 1020.1
20260502161702 69 19 1.7 1.7 0.00 0.00 0.00 49 1020.1
20260502161158 68 18 0.9 0.9 0.00 0.00 0.00 49 1020.1
20260502160657 69 24 3.5 4.3 0.00 0.00 0.00 47 1020.1
20260502160156 69 22 0.9 0.9 0.00 0.00 0.00 51 1020.2
20260502152109 66 16 3.5 4.3 0.00 0.00 0.00 58 1020.0
20260502151606 65 332 0.9 0.9 0.00 0.00 0.00 63 1020.0
20260502151104 64 13 0.9 0.9 0.00 0.00 0.00 66 1019.8
20260502150601 64 50 0.9 1.7 0.00 0.00 0.00 69 1019.7
20260502130446 55 352 0.0 0.9 0.00 0.00 0.00 99 1018.6
20260502123428 54 320 0.0 0.9 0.00 0.00 0.00 99 1018.3
20260502122926 54 344 0.0 0.0 0.00 0.00 0.00 99 1018.4
20260502122422 54 338 0.0 0.0 0.00 0.00 0.00 99 1018.1
20260502121920 53 332 0.0 0.0 0.00 0.00 0.00 99 1018.0
20260502121417 53 335 0.0 0.0 0.00 0.00 0.00 99 1017.8
20260502120915 53 339 0.0 0.0 0.00 0.00 0.00 99 1018.0
20260502120410 53 332 0.0 0.0 0.00 0.00 0.00 99 1017.8
20260502115908 53 331 0.0 0.0 0.00 0.00 0.00 99 1017.6
20260502115405 53 333 0.0 0.0 0.00 0.00 0.00 99 1017.6
20260502114901 53 329 0.0 0.0 0.00 0.00 0.00 99 1017.6
20260502114358 53 334 0.0 0.0 0.00 0.00 0.00 99 1017.5
20260502113855 53 333 0.0 0.0 0.00 0.00 0.00 99 1017.5
20260502113352 53 321 0.0 0.0 0.00 0.00 0.00 99 1017.4
20260502112851 53 327 0.0 0.0 0.00 0.00 0.00 99 1017.4
20260502112348 53 328 0.0 0.0 0.00 0.00 0.00 99 1017.1
20260502111845 53 327 0.0 0.0 0.00 0.00 0.00 99 1017.0
20260502111342 53 320 0.0 0.0 0.00 0.00 0.00 99 1017.0
20260502110840 53 313 0.0 0.0 0.00 0.00 0.00 99 1017.0
20260502110338 53 305 0.0 0.0 0.00 0.00 0.00 99 1016.7
20260502105835 53 317 0.0 0.0 0.00 0.00 0.00 99 1016.6
20260502105332 53 321 0.0 0.0 0.00 0.00 0.00 99 1016.4
20260502104830 53 321 0.0 0.0 0.00 0.00 0.00 99 1016.6
20260502104327 53 344 0.0 0.0 0.00 0.00 0.00 99 1016.5
20260502103824 54 345 0.0 0.0 0.00 0.00 0.00 99 1016.4
20260502103321 54 348 0.0 0.0 0.00 0.00 0.00 99 1016.2
20260502102818 54 345 0.0 0.0 0.00 0.00 0.00 99 1016.3
20260502102315 54 340 0.0 0.0 0.00 0.00 0.00 99 1016.2
20260502101813 54 324 0.0 0.0 0.00 0.00 0.00 99 1016.2
20260502101311 54 323 0.0 0.0 0.00 0.00 0.00 99 1016.2
20260502100809 54 344 0.0 0.0 0.00 0.00 0.00 99 1016.1
20260502100308 54 338 0.0 0.0 0.00 0.00 0.00 99 1016.1
20260502091241 55 323 0.0 0.0 0.00 0.00 0.00 99 1016.1
20260502090738 55 326 0.0 0.0 0.00 0.00 0.00 99 1016.2
20260502090235 55 320 0.0 0.0 0.00 0.00 0.00 99 1016.0
20260502071136 55 328 0.0 0.0 0.00 0.00 0.00 99 1015.8
20260502070634 55 344 0.0 0.0 0.00 0.00 0.00 99 1015.7
20260502070131 56 351 0.0 0.0 0.00 0.00 0.00 99 1015.8
20260502065629 56 330 0.0 0.0 0.00 0.00 0.00 99 1016.2
20260502065126 56 327 0.0 0.0 0.00 0.00 0.00 99 1016.0
20260502064626 56 328 0.0 0.0 0.00 0.00 0.00 99 1016.1
20260502064122 56 338 0.0 0.0 0.00 0.00 0.00 99 1016.1
20260502063620 56 336 0.0 0.0 0.00 0.00 0.00 99 1016.1
20260502063117 56 14 0.0 0.0 0.00 0.00 0.00 99 1016.2
20260502062614 56 330 0.0 0.0 0.00 0.00 0.00 99 1016.3
20260502062112 56 343 0.0 0.0 0.00 0.00 0.00 99 1016.3
20260502061610 56 344 0.0 0.0 0.00 0.00 0.00 99 1016.2
20260502061108 56 321 0.0 0.0 0.00 0.00 0.00 99 1016.1
20260502060607 56 340 0.0 0.0 0.00 0.00 0.00 99 1016.1
20260502060105 56 330 0.0 0.0 0.00 0.00 0.00 99 1016.2
20260502055602 56 340 0.0 0.0 0.00 0.00 0.00 99 1016.2
20260502055100 56 332 0.0 0.0 0.00 0.00 0.00 99 1016.1
20260502054559 56 323 0.0 0.0 0.00 0.00 0.00 99 1016.0
20260502054055 56 322 0.0 0.0 0.00 0.00 0.00 99 1016.2
20260502053553 56 344 0.0 0.0 0.00 0.00 0.00 99 1016.0
20260502053050 56 345 0.0 0.0 0.00 0.00 0.00 99 1016.2
20260502052549 56 345 0.0 0.0 0.00 0.00 0.00 99 1015.9
20260502052046 56 342 0.0 0.0 0.00 0.00 0.00 99 1016.2
20260502051544 56 327 0.0 0.0 0.00 0.00 0.00 99 1016.1
20260502051042 56 326 0.0 0.0 0.00 0.00 0.00 99 1016.2
20260502050537 56 345 0.0 0.0 0.00 0.00 0.00 99 1016.2
20260502050035 56 323 0.0 0.0 0.00 0.00 0.00 99 1016.3
20260502045531 56 324 0.0 0.0 0.00 1.18 1.18 99 1015.9
20260502045029 56 349 0.0 0.0 0.05 1.18 1.18 99 1015.8
20260502044525 56 348 0.0 0.0 0.05 1.18 1.18 99 1015.9
20260502044021 56 323 0.0 0.0 0.00 1.17 1.17 99 1015.8
20260502043519 56 351 0.0 0.0 0.00 1.17 1.17 99 1015.9
20260502043015 56 1 0.0 0.0 0.00 1.17 1.17 99 1015.8
20260502042510 56 3 0.0 0.0 0.00 1.17 1.17 99 1016.3
20260502042008 56 319 0.0 0.0 0.00 1.17 1.17 99 1016.3
20260502041506 56 334 0.0 0.0 0.00 1.17 1.17 99 1016.1
20260502041003 56 338 0.0 0.0 0.00 1.17 1.17 99 1016.1
20260502040459 56 340 0.0 0.0 0.00 1.17 1.17 99 1016.3
20260502035956 56 322 0.0 0.0 0.00 1.17 1.17 99 1016.5
20260502035451 56 321 0.0 0.0 0.00 1.17 1.17 99 1016.4
20260502034950 56 320 0.0 0.0 0.00 1.17 1.17 99 1016.2
20260502034448 56 304 0.0 0.0 0.00 1.17 1.17 99 1016.1
20260502033946 56 350 0.0 0.0 0.00 1.17 1.17 99 1015.8
20260502033443 56 349 0.0 0.0 0.00 1.17 1.17 99 1016.0
20260502032940 56 352 0.0 0.0 0.00 1.17 1.17 99 1015.9
20260502032436 56 353 0.0 0.0 0.00 1.17 1.17 99 1016.0
20260502031933 56 335 0.0 0.0 0.00 1.17 1.17 99 1015.8
20260502031432 56 5 0.0 0.0 0.00 1.17 1.17 99 1015.7
20260502030930 56 332 0.0 0.0 0.00 1.17 1.17 99 1016.2
20260502030428 56 327 0.0 0.0 0.00 1.17 1.17 99 1016.4
20260502025925 56 322 0.0 0.0 0.00 1.17 1.17 99 1016.4
20260502025422 56 323 0.0 0.0 0.00 1.17 1.17 99 1016.4
20260502024920 56 317 0.0 0.0 0.07 1.17 1.17 99 1016.2
20260502024418 56 299 0.0 0.0 0.07 1.17 1.17 99 1016.2
20260502023916 56 319 0.0 0.0 0.05 1.16 1.16 99 1016.1
20260502023413 56 297 0.0 0.0 0.12 1.16 1.16 99 1015.5
20260502022910 56 314 0.0 0.0 0.07 1.15 1.15 99 1015.7
20260502022407 56 315 0.0 0.0 0.00 1.14 1.14 99 1015.6
20260502021903 56 331 0.0 0.0 0.07 1.14 1.14 99 1015.4
20260502021401 56 334 0.0 0.0 0.07 1.14 1.14 99 1015.1
20260502020858 56 337 0.0 0.0 0.00 1.13 1.13 99 1015.0
20260502020356 57 287 0.9 0.9 0.00 1.13 1.13 99 1015.4
20260502015852 56 326 0.0 0.0 0.00 1.13 1.13 99 1015.0
20260502015349 56 346 0.0 0.0 0.00 1.13 1.13 99 1014.7
20260502014847 56 351 0.0 0.0 0.00 1.13 1.13 99 1014.5
20260502014344 56 323 0.0 0.0 0.00 1.13 1.13 99 1014.7
20260502013839 56 292 0.0 0.0 0.00 1.13 1.13 99 1014.5
20260502013335 56 339 0.0 0.9 0.00 1.13 1.13 99 1014.3
20260502012832 56 341 0.0 0.0 0.00 1.13 1.13 99 1014.0
20260502012330 57 350 0.0 0.0 0.00 1.13 1.13 99 1014.0
20260502011827 57 337 0.0 0.0 0.00 1.13 1.13 99 1014.4
20260502011323 57 2 0.0 0.0 0.00 1.13 1.13 99 1014.1
20260502010821 57 338 0.0 0.0 0.00 1.13 1.13 99 1014.0
20260502010317 57 343 0.0 0.9 0.05 1.13 1.13 99 1013.9
20260502005814 57 25 0.0 0.9 0.05 1.13 1.13 99 1014.1
20260502005312 57 349 0.0 0.0 0.00 1.12 1.12 99 1014.0
20260502004809 57 35 0.9 0.9 0.00 1.12 1.12 99 1014.0
20260502004305 57 343 0.0 0.9 0.00 1.12 1.12 99 1014.0
20260502003803 57 348 0.0 0.0 0.00 1.12 1.12 99 1014.1
20260502003259 57 8 0.0 0.0 0.00 1.12 1.12 99 1014.2
20260502002755 57 350 0.0 0.0 0.00 1.12 1.12 99 1014.2
20260502002252 57 348 0.0 0.0 0.00 1.12 1.12 99 1014.6
20260502001750 57 355 0.0 0.0 0.00 1.12 1.12 99 1014.3
20260502001248 57 356 0.0 0.0 0.00 1.12 1.12 99 1015.0
20260502000745 57 338 0.0 0.0 0.00 1.12 1.12 99 1014.9
20260502000244 57 324 0.0 0.0 0.00 1.12 1.12 99 1015.0
20260501235738 57 338 0.0 0.0 0.00 1.12 1.12 99 1014.9
20260501235234 57 349 0.0 0.0 0.00 1.12 1.12 99 1014.6
20260501234730 57 353 0.0 0.0 0.00 1.12 1.12 99 1014.8
20260501234228 57 0 0.0 0.9 0.00 1.12 1.12 99 1014.4
20260501233726 57 2 0.0 0.9 0.07 1.12 1.12 99 1014.4
20260501233223 57 7 0.0 0.9 0.07 1.12 1.12 99 1014.8
20260501232718 57 351 0.0 0.0 0.00 1.11 1.11 99 1014.7
20260501232216 57 349 0.0 0.0 0.00 1.11 1.11 99 1014.7
20260501231714 57 349 0.0 0.0 0.05 1.11 1.11 99 1014.7
20260501231212 57 345 0.0 0.0 0.05 1.11 1.11 99 1014.7
20260501230710 57 345 0.0 0.0 0.00 1.10 1.10 99 1014.6
20260501230208 56 345 0.0 0.0 0.00 1.10 1.10 99 1014.9
20260501225705 56 345 0.0 0.0 0.00 1.10 1.10 99 1014.8
20260501225202 56 351 0.0 0.0 0.00 1.10 1.10 99 1014.7
20260501224658 56 343 0.0 0.0 0.00 1.10 1.10 99 1014.6
20260501224155 57 353 0.0 0.0 0.00 1.10 1.10 99 1014.4
20260501223652 57 340 0.0 0.0 0.00 1.10 1.10 99 1014.4
20260501223148 56 349 0.0 0.0 0.00 1.10 1.10 99 1014.3
20260501222645 56 352 0.0 0.0 0.00 1.10 1.10 99 1014.2
20260501222142 56 349 0.0 0.0 0.00 1.10 1.10 99 1013.9
20260501221638 56 6 0.0 0.0 0.07 1.10 1.10 99 1013.8
20260501221137 57 4 0.0 0.9 0.07 1.10 1.10 99 1013.8
20260501220633 56 343 0.0 0.0 0.00 1.09 1.09 99 1013.6
20260501220130 56 359 0.0 0.0 0.05 1.09 1.09 99 1013.6
20260501215627 56 12 0.9 0.9 0.05 1.09 1.09 99 1013.6
20260501215122 56 12 1.7 1.7 0.00 1.08 1.08 99 1013.5
20260501214617 56 342 0.0 0.9 0.00 1.08 1.08 99 1013.4
20260501214113 56 356 0.9 0.9 0.00 1.08 1.08 99 1012.9
20260501213610 56 4 0.9 0.9 0.00 1.08 1.08 99 1012.7
20260501213106 56 5 0.9 1.7 0.00 1.08 1.08 99 1012.6
20260501212603 56 31 0.9 1.7 0.00 1.08 1.08 99 1012.5
20260501212100 56 339 0.9 0.9 0.00 1.08 1.08 99 1012.3
20260501211556 56 14 1.7 2.6 0.00 1.08 1.08 99 1012.2
20260501211055 56 23 1.7 2.6 0.00 1.08 1.08 99 1012.4
20260501210550 56 339 0.9 0.9 0.00 1.08 1.08 99 1012.4
20260501210048 56 7 0.0 0.9 0.00 1.08 1.08 99 1012.5
20260501205544 56 2 3.5 5.2 0.00 1.08 1.08 99 1011.6
20260501205042 56 16 1.7 1.7 0.00 1.08 1.08 99 1011.8
20260501204538 56 63 1.7 2.6 0.00 1.08 1.08 99 1011.4
20260501204034 55 13 1.7 2.6 0.00 1.08 1.08 99 1011.3
20260501203530 56 118 0.9 1.7 0.00 1.08 1.08 99 1011.0
20260501203028 56 19 1.7 1.7 0.00 1.08 1.08 99 1010.8
20260501202525 56 14 3.5 5.2 0.00 1.08 1.08 99 1011.3
20260501202021 56 103 2.6 2.6 0.00 1.08 1.08 99 1011.8
20260501201519 56 9 3.5 5.2 0.00 1.08 1.08 99 1011.9
20260501201015 56 39 3.5 6.1 0.00 1.08 1.08 99 1012.1
20260501200512 56 348 2.6 2.6 0.00 1.08 1.08 99 1012.4
20260501200010 56 0 3.5 5.2 0.07 1.08 1.08 99 1012.6
20260501195507 56 72 0.9 1.7 0.05 1.07 1.07 99 1013.6
20260501195002 57 14 2.6 2.6 0.05 1.07 1.07 99 1013.7